Time,TemperatureF,DewpointF,PressureIn,WindDirection,WindDirectionDegrees,WindSpeedMPH,WindSpeedGustMPH,Humidity,HourlyPrecipIn,Conditions,Clouds,dailyrainin,SoftwareType,DateUTC
2013-06-30 17:48:00,89.8,61.5,29.63,ENE,68,2.0,2.0,39,0.00,,,0.00,Wunderground v.1.15,2013-06-30 22:48:00,
2013-06-30 17:50:00,90.0,61.7,29.63,SSW,209,1.0,2.0,39,0.00,,,0.00,Wunderground v.1.15,2013-06-30 22:50:00,
2013-06-30 17:55:00,90.4,62.8,29.63,NE,44,1.0,2.0,40,0.00,,,0.00,Wunderground v.1.15,2013-06-30 22:55:00,
2013-06-30 18:00:00,90.1,62.5,29.63,NNW,340,2.0,2.0,40,0.00,,,0.00,Wunderground v.1.15,2013-06-30 23:00:00,
2013-06-30 18:05:00,90.0,62.4,29.63,SSW,194,2.0,9.0,40,0.00,,,0.00,Wunderground v.1.15,2013-06-30 23:05:00,
2013-06-30 18:10:00,90.0,63.1,29.63,NE,55,1.0,9.0,41,0.00,,,0.00,Wunderground v.1.15,2013-06-30 23:10:00,
2013-06-30 18:15:00,89.8,63.6,29.63,NNE,32,1.0,9.0,42,0.00,,,0.00,Wunderground v.1.15,2013-06-30 23:15:00,
2013-06-30 18:20:00,88.8,61.4,29.63,NNE,12,2.0,9.0,40,0.00,,,0.00,Wunderground v.1.15,2013-06-30 23:20:00,
2013-06-30 18:25:00,88.2,62.9,29.63,SSW,211,3.0,9.0,43,0.00,,,0.00,Wunderground v.1.15,2013-06-30 23:25:00,
2013-06-30 18:30:00,87.8,62.5,29.63,North,355,2.0,9.0,43,0.00,,,0.00,Wunderground v.1.15,2013-06-30 23:30:00,
2013-06-30 18:35:00,87.2,62.0,29.63,NNE,19,2.0,9.0,43,0.00,,,0.00,Wunderground v.1.15,2013-06-30 23:35:00,
2013-06-30 18:40:00,86.6,62.7,29.64,WSW,254,2.0,2.0,45,0.00,,,0.00,Wunderground v.1.15,2013-06-30 23:40:00,
2013-06-30 18:45:00,86.2,63.6,29.64,NE,50,2.0,9.0,47,0.00,,,0.00,Wunderground v.1.15,2013-06-30 23:45:00,
2013-06-30 18:50:00,85.7,63.1,29.64,NE,36,1.0,9.0,47,0.00,,,0.00,Wunderground v.1.15,2013-06-30 23:50:00,
2013-06-30 18:55:00,85.3,64.6,29.64,NNE,26,1.0,9.0,50,0.00,,,0.00,Wunderground v.1.15,2013-06-30 23:55:00,
2013-06-30 19:00:00,85.0,64.3,29.64,NE,36,1.0,9.0,50,0.00,,,0.00,Wunderground v.1.15,2013-07-01 00:00:00,
2013-06-30 19:05:00,84.7,65.1,29.64,NNE,13,1.0,9.0,52,0.00,,,0.00,Wunderground v.1.15,2013-07-01 00:05:00,
2013-06-30 19:10:00,84.4,64.3,29.65,NE,36,1.0,9.0,51,0.00,,,0.00,Wunderground v.1.15,2013-07-01 00:10:00,
2013-06-30 19:20:00,83.7,64.8,29.65,North,10,1.0,9.0,53,0.00,,,0.00,Wunderground v.1.15,2013-07-01 00:20:00,
2013-06-30 19:25:00,83.3,64.4,29.65,NE,43,1.0,9.0,53,0.00,,,0.00,Wunderground v.1.15,2013-07-01 00:25:00,
2013-06-30 19:30:00,82.9,65.1,29.65,NNW,345,1.0,9.0,55,0.00,,,0.00,Wunderground v.1.15,2013-07-01 00:30:00,
2013-06-30 19:35:00,82.6,64.3,29.65,NNW,346,1.0,9.0,54,0.00,,,0.00,Wunderground v.1.15,2013-07-01 00:35:00,
2013-06-30 19:40:00,82.3,64.5,29.65,NNE,30,1.0,1.0,55,0.00,,,0.00,Wunderground v.1.15,2013-07-01 00:40:00,
2013-06-30 19:45:00,82.1,65.4,29.65,NNE,29,0.0,9.0,57,0.00,,,0.00,Wunderground v.1.15,2013-07-01 00:45:00,
2013-06-30 19:50:00,81.8,66.1,29.65,NNE,28,0.0,9.0,59,0.00,,,0.00,Wunderground v.1.15,2013-07-01 00:50:00,
2013-06-30 19:55:00,81.3,65.1,29.65,NNE,28,0.0,9.0,58,0.00,,,0.00,Wunderground v.1.15,2013-07-01 00:55:00,
2013-06-30 20:00:00,80.8,65.1,29.65,NNE,28,0.0,9.0,59,0.00,,,0.00,Wunderground v.1.15,2013-07-01 01:00:00,
2013-06-30 20:05:00,80.2,65.1,29.65,NNE,28,0.0,9.0,60,0.00,,,0.00,Wunderground v.1.15,2013-07-01 01:05:00,
2013-06-30 20:10:00,79.8,66.1,29.66,NNE,28,0.0,9.0,63,0.00,,,0.00,Wunderground v.1.15,2013-07-01 01:10:00,
2013-06-30 20:15:00,79.2,66.9,29.66,NNE,28,0.0,9.0,66,0.00,,,0.00,Wunderground v.1.15,2013-07-01 01:15:00,
2013-06-30 20:20:00,78.4,67.4,29.66,NNE,28,0.0,9.0,69,0.00,,,0.00,Wunderground v.1.15,2013-07-01 01:20:00,
2013-06-30 20:25:00,77.6,67.4,29.66,NNE,28,1.0,9.0,71,0.00,,,0.00,Wunderground v.1.15,2013-07-01 01:25:00,
2013-06-30 20:30:00,76.9,66.8,29.66,NNE,28,0.0,9.0,71,0.00,,,0.00,Wunderground v.1.15,2013-07-01 01:30:00,
2013-06-30 20:35:00,76.4,67.1,29.66,NNE,28,0.0,9.0,73,0.00,,,0.00,Wunderground v.1.15,2013-07-01 01:35:00,
2013-06-30 20:40:00,75.9,67.0,29.67,NNE,28,0.0,9.0,74,0.00,,,0.00,Wunderground v.1.15,2013-07-01 01:40:00,
2013-06-30 20:45:00,75.5,67.0,29.67,NNE,28,0.0,9.0,75,0.00,,,0.00,Wunderground v.1.15,2013-07-01 01:45:00,
2013-06-30 20:50:00,75.2,66.3,29.67,NNE,28,0.0,9.0,74,0.00,,,0.00,Wunderground v.1.15,2013-07-01 01:50:00,
2013-06-30 20:55:00,74.9,66.4,29.67,NNE,28,0.0,9.0,75,0.00,,,0.00,Wunderground v.1.15,2013-07-01 01:55:00,
2013-06-30 21:00:00,74.7,66.6,29.67,NNE,28,0.0,9.0,76,0.00,,,0.00,Wunderground v.1.15,2013-07-01 02:00:00,
2013-06-30 21:05:00,74.4,66.3,29.67,North,10,0.0,9.0,76,0.00,,,0.00,Wunderground v.1.15,2013-07-01 02:05:00,
2013-06-30 21:10:00,74.2,66.5,29.68,North,11,0.0,9.0,77,0.00,,,0.00,Wunderground v.1.15,2013-07-01 02:10:00,
2013-06-30 21:15:00,73.9,66.6,29.68,North,10,0.0,9.0,78,0.00,,,0.00,Wunderground v.1.15,2013-07-01 02:15:00,
2013-06-30 21:20:00,73.5,65.8,29.68,North,10,0.0,9.0,77,0.00,,,0.00,Wunderground v.1.15,2013-07-01 02:20:00,
2013-06-30 21:25:00,73.2,65.6,29.69,North,10,0.0,9.0,77,0.00,,,0.00,Wunderground v.1.15,2013-07-01 02:25:00,
2013-06-30 21:30:00,73.1,65.5,29.69,NNE,18,0.0,9.0,77,0.00,,,0.00,Wunderground v.1.15,2013-07-01 02:30:00,
2013-06-30 21:35:00,73.2,65.2,29.69,NNE,18,0.0,9.0,76,0.00,,,0.00,Wunderground v.1.15,2013-07-01 02:35:00,
2013-06-30 21:40:00,73.3,65.7,29.69,NNE,18,0.0,9.0,77,0.00,,,0.00,Wunderground v.1.15,2013-07-01 02:40:00,
2013-06-30 21:45:00,73.4,65.4,29.69,NNE,18,0.0,9.0,76,0.00,,,0.00,Wunderground v.1.15,2013-07-01 02:45:00,
2013-06-30 21:50:00,73.4,65.4,29.69,NNE,22,0.0,9.0,76,0.00,,,0.00,Wunderground v.1.15,2013-07-01 02:50:00,
2013-06-30 21:55:00,73.5,65.5,29.70,NW,315,0.0,9.0,76,0.00,,,0.00,Wunderground v.1.15,2013-07-01 02:55:00,
2013-06-30 22:00:00,73.4,65.4,29.70,NW,315,0.0,9.0,76,0.00,,,0.00,Wunderground v.1.15,2013-07-01 03:00:00,
2013-06-30 22:05:00,73.4,65.7,29.70,NW,315,0.0,9.0,77,0.00,,,0.00,Wunderground v.1.15,2013-07-01 03:05:00,
2013-06-30 22:10:00,73.3,65.7,29.70,NW,316,0.0,9.0,77,0.00,,,0.00,Wunderground v.1.15,2013-07-01 03:10:00,
2013-06-30 22:15:00,73.1,65.5,29.70,NW,315,0.0,9.0,77,0.00,,,0.00,Wunderground v.1.15,2013-07-01 03:15:00,
2013-06-30 22:20:00,73.0,65.4,29.70,NW,315,0.0,9.0,77,0.00,,,0.00,Wunderground v.1.15,2013-07-01 03:20:00,
2013-06-30 22:25:00,72.9,65.6,29.70,NW,315,0.0,9.0,78,0.00,,,0.00,Wunderground v.1.15,2013-07-01 03:25:00,
2013-06-30 22:30:00,72.7,65.8,29.70,NW,315,0.0,9.0,79,0.00,,,0.00,Wunderground v.1.15,2013-07-01 03:30:00,
2013-06-30 22:35:00,72.4,65.5,29.70,NW,317,0.0,9.0,79,0.00,,,0.00,Wunderground v.1.15,2013-07-01 03:35:00,
2013-06-30 22:40:00,72.2,65.0,29.70,NNW,331,0.0,9.0,78,0.00,,,0.00,Wunderground v.1.15,2013-07-01 03:40:00,
2013-06-30 22:45:00,72.1,65.2,29.70,NNW,331,0.0,9.0,79,0.00,,,0.00,Wunderground v.1.15,2013-07-01 03:45:00,
2013-06-30 22:50:00,72.1,65.2,29.70,NNW,331,0.0,9.0,79,0.00,,,0.00,Wunderground v.1.15,2013-07-01 03:50:00,
2013-06-30 22:55:00,72.0,65.5,29.70,NNW,331,0.0,9.0,80,0.00,,,0.00,Wunderground v.1.15,2013-07-01 03:55:00,
2013-06-30 23:00:00,71.8,64.9,29.70,NNW,331,0.0,9.0,79,0.00,,,0.00,Wunderground v.1.15,2013-07-01 04:00:00,
2013-06-30 23:05:00,71.6,64.7,29.70,NNW,331,0.0,9.0,79,0.00,,,0.00,Wunderground v.1.15,2013-07-01 04:05:00,
2013-06-30 23:10:00,71.5,64.6,29.71,NNW,331,0.0,9.0,79,0.00,,,0.00,Wunderground v.1.15,2013-07-01 04:10:00,
2013-06-30 23:15:00,71.4,64.9,29.71,NNW,331,0.0,9.0,80,0.00,,,0.00,Wunderground v.1.15,2013-07-01 04:15:00,
2013-06-30 23:20:00,71.3,65.2,29.71,NNW,331,0.0,9.0,81,0.00,,,0.00,Wunderground v.1.15,2013-07-01 04:20:00,
2013-06-30 23:25:00,71.2,65.1,29.71,NNW,331,0.0,9.0,81,0.00,,,0.00,Wunderground v.1.15,2013-07-01 04:25:00,
2013-06-30 23:30:00,71.0,64.9,29.71,NNW,331,0.0,9.0,81,0.00,,,0.00,Wunderground v.1.15,2013-07-01 04:30:00,
2013-06-30 23:35:00,70.9,64.8,29.71,NNW,331,0.0,9.0,81,0.00,,,0.00,Wunderground v.1.15,2013-07-01 04:35:00,
2013-06-30 23:40:00,70.8,65.0,29.70,NNW,331,0.0,9.0,82,0.00,,,0.00,Wunderground v.1.15,2013-07-01 04:40:00,
2013-06-30 23:45:00,70.6,64.8,29.70,NNW,331,0.0,9.0,82,0.00,,,0.00,Wunderground v.1.15,2013-07-01 04:45:00,
2013-06-30 23:50:00,70.4,65.0,29.70,NNW,331,0.0,9.0,83,0.00,,,0.00,Wunderground v.1.15,2013-07-01 04:50:00,
2013-06-30 23:55:00,70.3,64.9,29.70,NNW,331,0.0,9.0,83,0.00,,,0.00,Wunderground v.1.15,2013-07-01 04:55:00,